{"data":{"norad_id":60185,"epoch":"2026-05-25T00:13:44.218848Z","epoch_age_seconds":84289,"freshness":"FRESH","line1":"1 60185U 24124C   26145.00953957  .00000871  00000+0  12048-4 0  9993","line2":"2 60185  53.1576 144.8318 0000913  90.2916 269.8207 15.69709690108520","mean_motion":15.6970969,"eccentricity":9.13e-5,"inclination_deg":53.1576,"raan_deg":144.8318,"arg_perigee_deg":90.2916,"mean_anomaly_deg":269.8207,"bstar":1.2048e-5,"rev_number":10852,"period_min":91.736708333628,"perigee_km":359.11247047986,"apogee_km":360.34280456267,"semimajor_km":6737.8646375213,"source":"CELESTRAK","updated_at":"2026-05-25T13:38:19.193532Z"}}